ACE-2 (1997) Cruise on the R/V VODYANITSKIY;  Number Size Distribution from DMPS,,,,,,,,,,,,,,,,,,,,,,,
Day-of-Year,Date_Time,1,2,3,4,5,6,7,8,9,10,11,12,13,14,15,16,17,18,19,20,21,22
 ,,0.007,0.0086,0.0107,0.0131,0.0162,0.02,0.0246,0.0304,0.0375,0.0462,0.057,0.0702,0.0866,0.1068,0.1317,0.1624,0.2003,0.247,0.3047,0.3757,0.4633,0.5714
171.778,1997-06-20 18:40:19,0,0,0,0,123.4,176.9,177.5,242.1,349.5,370.8,296.3,155.3,135.3,226.7,363.1,571.6,547.9,361.1,198.8,98.79,40.65,16.42
171.785,1997-06-20 18:50:24,0,0,0,0,27.4,36.68,119.6,226.4,305,307.3,244.6,160.1,148.2,237.5,407.8,586.2,559,372.2,207.6,102.2,39.63,17.83
171.792,1997-06-20 19:00:28,0,0,0,0,22.57,38.87,120.8,211.9,242.3,260.2,249.1,154.5,127.2,231,392.3,593.7,597.7,410.6,230.7,112.9,43.28,14.89
171.799,1997-06-20 19:10:33,0,0,0,0,27.08,46.92,139.3,211.6,231.6,258,243.5,164,139.6,206.7,375.8,596,638.4,432,238.4,113.7,41.01,14.97
171.806,1997-06-20 19:20:38,0,0,0.4,133.5,158.6,53.11,111.2,192.5,222.2,264.1,343.4,268.1,193,273.1,412.7,640.5,621.8,415.5,240.7,124.7,47.97,15.25
171.812,1997-06-20 19:29:16,0,0,0,0,111.7,164.7,293.2,524.2,547.2,438.8,336.7,198.6,140.2,232.2,378.8,619.9,643.2,438.9,254.1,129.6,48.77,17.81
171.819,1997-06-20 19:39:21,0,1.08,52.74,48.46,78.94,52.57,106.1,203.6,281.9,378.8,397.1,255.1,173.5,274.8,412.3,606.9,678.4,474.6,268.8,133.7,51.89,13.07
171.826,1997-06-20 19:49:26,0,0,0,0,94.13,59.22,102.6,205.9,260.1,316.3,312.3,188,155.8,253.1,425.3,601.3,625.3,452.8,262.7,133.9,55.7,18.23
171.833,1997-06-20 19:59:31,0,0,0.3,100.1,226.1,198.3,324.8,557.9,625.1,559.9,425.6,222.9,163.9,249.9,406.3,623.2,653.8,477.4,272.2,131.8,51.38,16.55
171.84,1997-06-20 20:09:36,0,0,0.2,66.76,333.5,368.1,536.1,660.5,614.9,485.7,353.5,199.4,145.4,235.5,377.1,611.8,640.1,468.8,283.5,147,55.82,18.4
171.847,1997-06-20 20:19:40,0,0,0.1,33.38,191.9,258.1,354.3,391.4,382.7,346.6,297.4,178.4,142.3,243.8,408.5,644.4,660.7,479.1,281.1,139.2,50.96,17.57
171.854,1997-06-20 20:29:45,0,0,0,0,49.92,80.89,165.8,234.4,242.3,252.9,251.1,168.2,129.1,215.1,405.6,606.7,651.5,458.6,272.2,137,46.4,17.64
171.861,1997-06-20 20:39:50,0,0,0,0,18.05,31.15,98.16,158.6,163.8,187.5,185.6,141.3,138.3,245.6,407.7,578.3,602.5,442.8,255.8,126.1,49.88,19.52
171.868,1997-06-20 20:49:55,0,0,0,0,27.54,33.65,76.99,143,148.2,167.3,180.6,126.9,115.1,222.2,388.7,554.2,581.6,419.9,239.6,115.1,42.44,15.07
171.875,1997-06-20 21:00:00,0,0,0,0,41.76,36.7,81.7,134.1,151.1,174.5,187.6,148.9,127.3,209.9,374.4,608.6,692.7,518.3,292.5,134.3,47.32,15.55
171.882,1997-06-20 21:10:04,0,0,0,0,101.3,117.1,154.6,190,180.6,216.1,298.7,238.7,161.6,184.3,381.9,660.7,803.5,583.4,313.4,136.9,47.47,13.3
171.889,1997-06-20 21:20:09,0,0,0.1,33.37,98.98,100.9,118.4,156.7,217.8,215.7,312.6,260,187.9,316.1,486.6,670.8,717.6,517.9,285.9,134.4,53.21,14.45
171.896,1997-06-20 21:30:14,0,0,0.3,100.1,115.8,65.02,89.78,152.1,221.1,336,426,293.2,191.2,302.7,464,657.1,808.6,628.3,353.6,156.3,51.35,14.96
171.903,1997-06-20 21:40:19,0,0,0.2,66.74,123.1,75.19,68.7,146.9,285.7,478,545.5,365.1,233.1,407.6,576.3,688.3,725.9,520.1,282.4,129.2,49.66,12.19
171.91,1997-06-20 21:50:24,0,0,0,0,60.09,61.78,74.15,137.5,213.9,308.4,314.1,205,164.9,285.9,477.2,610.9,635.3,451.9,249.9,121.1,50.63,12.65
171.917,1997-06-20 22:00:28,0,1.08,52.83,81.8,99.32,72.13,105.9,136.8,170.9,232.1,230.2,161.5,223.5,274.6,177.5,564.8,638.9,448.1,251.7,124.9,49.39,9.57
171.924,1997-06-20 22:10:33,0,0,0.2,66.73,73.91,44.38,93.22,147.8,242.5,355.9,386.8,248.3,244.5,417.3,508.2,361.7,669.5,514,287.4,135.8,49.59,11.64
171.931,1997-06-20 22:20:38,0,0,0,0,20.41,32.65,73.36,156.8,271.5,403.1,412.9,263.7,216.9,307.3,472,694.6,693.3,486.9,277.7,136,50.57,11.92
171.938,1997-06-20 22:30:43,0,0,0,0,27.79,24.98,63.7,121.6,167.4,214.8,222.3,155.1,152.7,242,451.9,679.9,645.6,365.2,220.2,129.1,44.93,11
171.944,1997-06-20 22:39:21,0,0,0,0,8.93,17.69,71.36,100.1,158.8,223.5,203.9,130.1,131.1,262.4,431.6,653.6,672.3,473.8,276.2,142.2,56.14,12.24
171.951,1997-06-20 22:49:26,0,0,0,0,36.6,48.29,104.1,242.7,482.7,783,952.5,536.7,291.8,413.3,539.8,693.9,816.6,624.6,374.6,184.5,62.28,17.37
171.958,1997-06-20 22:59:31,0,0,0,0,32.29,32.22,105.6,297.5,603.4,978.8,1064,579.8,288.6,388.3,528.6,708.4,849.5,637.3,369.9,177.4,60.42,19.52
171.965,1997-06-20 23:09:36,0,1.07,52.82,81.78,73.91,42.95,104.6,292.9,587.2,963.7,1040,589.1,295.8,403,590.4,764.7,873.7,676.7,387,180.7,66.27,18.41
172.271,1997-06-21 06:30:14,0,0,0.1,33.36,99.08,93.91,149.5,197.8,189.9,200.1,239.5,217.2,243.8,370.8,573.7,739.5,789,617.9,387.6,196.4,63.71,23.87
172.278,1997-06-21 06:40:19,0,0,0,0,118,114.9,163.5,187.7,217.4,274.9,323.1,275.7,261.6,371.4,550.5,787.9,934.7,786,482.5,230,73.16,13.63
172.285,1997-06-21 06:50:24,0,1.08,52.83,81.8,167.9,167.9,227.7,285.8,313.5,366.9,442.3,331.2,282.7,400.4,580.8,847.2,903.8,744.5,448.9,216.4,78.74,16.06
172.292,1997-06-21 07:00:28,0,0,0.3,100.1,190,130.4,155.6,170.9,170.3,215.7,300.7,269.8,273.8,373.3,541.9,754.3,820.4,666.9,411.3,200.6,66.39,15.03
172.299,1997-06-21 07:10:33,0,0,0,0,73.75,83.13,89.02,110.3,171.4,260.5,299.5,255.8,246.8,344.1,529.5,739.9,782.1,615.1,394.7,207.5,71.72,21.72
172.306,1997-06-21 07:20:38,0,0,0,0,56.99,82.11,169.4,293.5,511,706.9,592.2,828.2,652.1,653.8,875.9,902.9,874.8,670.4,409.3,204.1,69.84,27.13
172.319,1997-06-21 07:39:21,0,0,0,0,75.63,98.1,131.1,159.7,265.2,408.9,521,367.8,277.6,339.6,489.2,740.6,883.4,750.6,492.9,258.7,89.23,24.92
172.326,1997-06-21 07:49:26,0,0,0,0,73.72,83.21,98.36,157.4,254,388.7,526.8,380.9,240,276.7,403.4,700.2,929.2,802,510.1,261.1,95.36,24.92
172.333,1997-06-21 07:59:31,0,0,0,0,47.82,72.92,87.86,146.9,267.3,421.9,550.1,406.7,260.9,321.5,456.4,703.6,963.3,812,520.4,273.1,99.9,28.16
172.34,1997-06-21 08:09:36,0,0,0,0,29.8,37.16,74.72,148.3,272.5,456.7,615.9,446.1,287.6,361.8,473.6,727.3,957.8,825.5,528.5,267.6,91.04,19.48
172.347,1997-06-21 08:19:40,0,0,0,0,25.01,38.92,62.71,131.6,255.6,418,519.2,368.1,257.7,357,465.5,700.5,805,675.2,455.9,249.9,88.97,23.83
172.354,1997-06-21 08:29:45,0,0,0,0,48.89,36.63,65.16,126,205.3,290.5,342.5,282.6,219.4,276.4,406.7,657.8,854.6,714.2,458.1,241.2,88.41,28.17
172.361,1997-06-21 08:39:50,0,0,0,0,15.89,25.15,45.69,82.6,148.7,242.5,285.8,233.9,213.1,299,422.5,531.8,576.1,527.7,376.9,215,81.02,26
172.368,1997-06-21 08:49:55,0,0,0,0,4.5,7.81,28.07,59.49,94.93,179.5,221.4,199.2,223.1,260.7,385.6,565.4,637.1,516.9,356,212.2,88.66,29.25
172.375,1997-06-21 09:00:00,0,0,0,0,4.51,7.79,22.1,40.1,76.1,148.2,194,177.9,186,288.5,403.8,539.8,628.7,531.9,370.3,214.9,83.29,29.26
172.382,1997-06-21 09:10:04,0,0,0,0,6.81,10.76,20.09,46.49,101.8,168,206.5,193,216.7,276.3,379.2,526.8,639.8,563.2,389.1,218.3,82.06,20.56
172.389,1997-06-21 09:20:09,0,0,0,0,4.49,8.2,26.55,41.81,84.25,150.6,147.7,124.7,196.4,285.8,375.7,506.2,582.2,545.5,388.2,219.6,83.58,20.55
172.396,1997-06-21 09:30:14,0,0,0,0,11.36,18.02,28.74,41.69,84.9,154.8,163.9,133.6,187.1,291.8,343.1,501,574.3,493.1,348.6,201.1,74.05,25.97
172.403,1997-06-21 09:40:19,0,0,0,0,9.06,14.67,31.95,55.59,91.34,157.4,149.9,117.7,184,304.1,357.7,454.7,521.2,461.3,323.5,183,67.41,23.79
172.41,1997-06-21 09:50:24,0,0,0,0,2.27,3.6,10.27,32.9,72.76,136.3,163.3,144.9,180.9,278.1,329.5,429.6,480.6,378.9,260.2,156.6,65.68,16.2
172.417,1997-06-21 10:00:28,0,0,0,0,9.37,4.9,11.29,29.54,77.8,162.2,154.8,131.8,193.5,324.6,308.5,415.2,470.9,390.7,270.8,156.2,59.29,15.11
172.424,1997-06-21 10:10:33,0,0,0,0,2.27,3.68,8.34,26.53,82.97,166.7,171.4,114.8,173.8,283.9,301.7,362.7,449.7,408.3,288,165,63.59,17.27
172.431,1997-06-21 10:20:38,0,0,0,0,2.28,3.21,4.95,32.23,85.49,170.6,176.6,133.1,186.6,267.1,303.3,368.8,421.5,379.9,266.6,145.1,47.29,16.2
172.438,1997-06-21 10:30:43,0,0,0,0,0,0.46,10.76,35.01,91.06,175.2,156.5,97.49,130.4,182.9,171.6,213.5,265.2,259.1,188.9,110.2,44.01,11.87
172.444,1997-06-21 10:39:21,0,0,0,0,0,0.85,14.88,45.89,105.1,176.8,155.4,98.63,123,187.8,207.4,227.8,293.2,293.6,214,121.9,45.8,12.96
172.451,1997-06-21 10:49:26,0,0,0,0,2.27,3.36,8.53,38.77,101,188.3,165.3,104.5,166.7,183.2,89.1,235.7,292.8,274.5,200.3,116.1,43.24,15.14
172.458,1997-06-21 10:59:31,0,0,0,0,4.54,7.16,15.41,43.56,115.9,217.2,215.7,102.1,79.18,126.7,166.6,184.9,224.9,208.3,146.8,86.76,37.65,14.07
172.465,1997-06-21 11:09:36,0,0,0,0,2.28,3.29,9.46,48.76,118.8,209.9,206.6,96.19,81.19,122.3,130.5,158.9,181.3,148,87.46,41.46,15.02,5.41
172.472,1997-06-21 11:19:40,0,0,0,0,2.28,3.4,7.5,37.09,117.1,230,212.9,100,47.09,52.21,51.84,40.82,46.29,47.49,35.2,21.34,9.41,4.34
172.479,1997-06-21 11:29:45,783.6,247.6,401.7,205.5,62.79,8.22,8.42,42.64,104.8,178.8,171.1,101.4,56.08,49.67,39.88,49.98,61.18,54.48,38.25,21.95,8.4,3.25
172.486,1997-06-21 11:39:50,1411,2638,2363,2511,2066,911.5,392.2,170.9,153,502.8,801.3,627.2,420.3,274.4,204.8,134.4,103.6,71.26,42.58,22.13,7.85,7.59
172.493,1997-06-21 11:49:55,940.4,979.7,2060,1944,1729,608.3,214.4,52.5,127.3,316.9,494.5,346.1,416.9,215.7,120,76.7,76.61,62.58,35.77,18.25,9.42,4.34
172.5,1997-06-21 12:00:00,470.2,944.1,1065,2124,2249,808.3,456.3,89.84,100.2,261.5,480.1,545.3,458.5,250.1,154.2,81.54,74.62,48.92,26.28,14.79,8.13,5.43
172.507,1997-06-21 12:10:04,1097,1819,2439,3092,1961,690.3,594.5,329.7,110.2,207.7,463.7,679.3,619.8,368.8,192.2,96.21,65.44,43.21,25.64,14.36,6.63,2.17
172.514,1997-06-21 12:20:09,470.2,413.8,1097,1862,3076,1586,938.7,495.3,144.1,215.7,475.9,745.3,846.9,476.7,206.5,80.54,39.18,27.12,16.47,9.43,4.82,4.34
172.521,1997-06-21 12:30:14,0,0,0,0,2.26,3.81,12.02,35.44,81.66,104.9,65.99,36.94,34.43,31.79,32.16,31.05,25.93,19.8,12.74,9.7,7.12,4.34
172.528,1997-06-21 12:40:19,0,0,0,0,2.28,3.4,7.57,34.7,69.67,92.02,72.95,45.4,41.98,39.82,33.15,31.7,30.64,21.49,14.72,9.96,4.82,4.34
172.535,1997-06-21 12:50:24,0,0,0,0,0,0.1,4.46,24.42,61.45,98.72,73.3,40.65,38.98,29.86,28.89,40.53,43.18,32.49,17.69,10.22,6.88,3.26
172.542,1997-06-21 13:00:28,0,0,0,0,2.28,3.42,7.24,30.62,68.22,76.24,34.19,14.25,11.66,17.49,42.63,64.54,62.37,37.51,23,15.18,7.64,4.34
172.549,1997-06-21 13:10:33,0,0,0.1,33.36,20.92,4.2,7.34,27.83,67.29,90.55,51.77,18.56,18.94,36.69,40.97,46.45,46.9,42.02,27.23,14.3,6.36,2.29
172.556,1997-06-21 13:20:38,0,0,0,0,2.28,3.41,7.61,32.12,74.65,117.1,72.97,23.85,12.9,12.26,27.05,51.4,57.28,45.62,26.05,12.26,5.6,2.31
172.562,1997-06-21 13:29:16,0,0,0,0,0,0.07,5.09,29.91,75.92,124.3,87.75,29.33,21.4,28.06,35.51,49.87,44.23,35.71,24.01,13.81,6.37,2.38
173,1997-06-22 00:00:00,0,0,75.1,318,812,230.38,367.16,569.35,962.76,1290.93,1507.31,1394.4,1192.66,955.03,710.07,447.87,358.52,409.67,150.49,54.92,29.73,19.11
173.007,1997-06-22 00:10:04,0,106,150,432,696,201.59,324.28,561.2,897.35,1103.48,1265.86,1072.29,809.1,635.8,422.25,275.86,295.39,352.03,146.81,50.46,32.22,17.9
173.014,1997-06-22 00:20:09,0,106,225,378,967,167.82,306.9,411.91,535.03,710.28,752.32,490.19,292.76,222.74,183.44,178.23,260.41,309.92,127.08,45,24.68,17.17
173.021,1997-06-22 00:30:14,0,106,150,432,580,209.53,349.86,456.5,608.2,694.06,711.75,470.89,297.27,207.7,168.83,175.21,252.54,304.54,131.38,40.19,26.28,12.58
173.028,1997-06-22 00:40:19,0,211,150,331,619,204.94,336.22,476.21,634.47,717.64,759.62,561.48,386.11,333.1,283.79,195.02,270.81,340.05,132.13,46.41,30.85,14.75
173.035,1997-06-22 00:50:24,0,310,150,270,735,261.17,386.65,527.56,697.25,793.26,861.97,634.97,477.58,370.04,299.37,236.78,282.64,332.99,128.68,57.8,29.71,15.48
173.042,1997-06-22 01:00:28,0,0,0,378,592,168.82,221.98,293.86,368,476.55,514.26,363.92,216.33,174.79,140.35,162.22,306.09,319.73,116.63,55.1,36.1,20.8
173.049,1997-06-22 01:10:33,0,108,221,432,812,114.2,151.69,219.63,324.16,490.17,624.2,482.83,232.31,150.56,137.9,175.18,265.06,281.93,125.19,39.12,23.08,17.41
173.056,1997-06-22 01:20:38,0,108,150,794,619,285,410.32,529.63,755.8,827.88,869.01,558.36,283.42,186.15,176.13,183.29,262.15,297.62,129.47,48.53,19.42,12.58
173.062,1997-06-22 01:29:16,0,106,225,486,889,221.45,341.53,526.05,790.71,1041.43,1144.02,823.29,511.88,362.4,321.31,305.56,315.27,324.26,145.23,51.77,34.75,23.13
173.069,1997-06-22 01:39:21,0,422,676,540,1290,316.78,447.97,581.38,916.34,1170.25,1334.53,1089.64,732.46,570.05,410.04,316.72,343.28,362.71,158.76,56.53,26.28,14.75
173.076,1997-06-22 01:49:26,0,0,0,378,889,292.56,396.49,600.11,934.3,1099.23,1330.75,1026.42,668.13,489.99,340.11,261.54,303.64,322.74,141.8,42.12,27.88,15.24
173.083,1997-06-22 01:59:31,0,0,451,378,750,269.11,377.1,528.37,729.08,859.84,944.08,658.34,380.22,257.03,217.41,220.66,295.99,301.64,133.23,46.04,22.62,16.93
173.181,1997-06-22 04:20:38,0,106,307,756,1890,768.61,1271.5,1228.18,964.27,1091.07,934.15,709.16,523.34,378.43,283.97,236.51,300.03,304.21,138.59,31.35,21.25,10.64
173.188,1997-06-22 04:30:43,0,0,75.1,540,1740,741.79,1132.64,1227,1041.57,1078.65,1120.52,917.22,629.88,428.5,308.33,269.29,317.84,316.8,160.02,35.67,20.34,14.03
173.194,1997-06-22 04:39:21,0,0,75.1,378,2320,792.44,1254.03,1357.12,1305.71,1316.71,1272.61,1000.82,719.14,456.34,366.86,299.96,343.23,327.87,154.05,42.76,21.71,13.3
173.201,1997-06-22 04:49:26,0,211,221,810,1740,745.77,1244.3,1478.89,1475.73,1566.26,1535.49,1199.4,815.71,556.38,400.45,335.94,372.66,322.69,132.07,36.2,17.82,17.17
173.208,1997-06-22 04:59:31,0,0,75.1,702,1780,708.03,1177.72,1374.78,1354.88,1464.72,1421.97,1061.07,721.12,517.69,401.26,346.98,363.21,342.69,153.33,39.44,20.34,11.37
173.215,1997-06-22 05:09:36,0,0,0,486,1700,653.41,1039.7,1253.42,1370.39,1453.51,1365.88,987.86,707,498.2,376.76,297.89,349.42,361.8,146.59,42.88,20.34,14.7
173.222,1997-06-22 05:19:40,0,211,0,432,1040,588.87,986.21,1245.15,1537.47,1579.39,1427.07,987.16,666.08,497.88,340.18,318.41,347.47,347.35,143.74,34.41,19.65,14.27
173.229,1997-06-22 05:29:45,0,0,150,540,1310,523.33,892.58,1272.1,1578.76,1518.33,1361.42,919.67,621.98,437.67,330.14,320.2,338.08,303.89,129.06,30.8,14.21,11.13
173.236,1997-06-22 05:39:50,147,207,601,992,1550,635.63,979.31,1363.39,1850.52,1922.54,1546.88,996.54,580.93,459.34,339.67,301.62,317.04,282.24,110.63,35.58,21.25,9.92
173.243,1997-06-22 05:49:55,0,103,383,540,1200,560.07,938.07,1361.82,1889.59,1982.12,1629.9,1060.73,615.58,471.75,386.07,301.36,318.36,288.89,105.63,27.81,20.57,14.27
173.25,1997-06-22 06:00:00,0,0,230,270,1200,529.29,851.15,1410.68,2026.16,2172.29,1720.87,1037.54,603.7,436.03,315.89,269.23,295.21,258.63,100.96,25.05,14.62,13.79
173.257,1997-06-22 06:10:04,0,0,376,216,1010,493.54,717.88,1180.17,1649.83,1699.34,1257.18,728.44,449.81,325.98,259.37,234.13,268.4,250.2,107.72,36.89,23.08,20.07
173.264,1997-06-22 06:20:09,0,0,75.1,318,1700,437.93,610.94,1035.45,1499.33,1416.01,1474.02,1164.75,423.38,253.62,184.82,211,272.84,248.26,123.92,38.23,23.99,16.45
173.271,1997-06-22 06:30:14,0,0,0,432,1140,445.87,641.4,1022.11,1581.18,1500.97,986.03,568.69,371.31,271.89,201.43,213.79,263.72,249.64,106.4,35.12,17.59,7.98
173.278,1997-06-22 06:40:19,0,106,0,594,1290,395.23,583.04,956.46,1505.94,1540.94,1034.35,628.43,444.08,319.82,236.45,216.26,236.58,264.44,159.52,31.6,0,13.54
173.285,1997-06-22 06:50:24,0,106,0,216,1350,541.2,752.87,1045.93,1475.42,1498.66,990.03,600.25,370.29,258.7,193.59,192.98,302.26,297.27,128.85,30.54,17.14,11.85
173.292,1997-06-22 07:00:28,0,103,150,702,2170,542.2,820.4,1137.96,1570.53,1565.36,1124.33,633.83,367.07,232.84,223.09,220.93,283.44,272.79,130.88,37.58,22.95,17.41
173.299,1997-06-22 07:10:33,0,0,150,216,1430,526.31,706.73,1027.76,1501.2,1552.21,1012.95,565.16,387.73,277.79,224.84,191.12,230.47,229.4,117.4,35.88,14.62,12.09
173.306,1997-06-22 07:20:38,0,106,147,220,1010,430.69,610.94,996.11,1481.28,1555.44,1004.93,558.65,349.88,264,242.62,198.34,222.91,225.77,117.83,27.57,15.31,6.77
173.312,1997-06-22 07:29:16,0,0,76.7,265,1160,427,640.03,968.05,1548.25,1651.8,1168.69,658.84,413.57,322,277.99,222.84,222.76,228.61,99.52,27.16,14.17,9.02
173.319,1997-06-22 07:39:21,0,0,307,1010,6920,455.8,687.13,1117.34,1668.56,1827.64,1464.97,1275.57,897.6,1626.47,1169.65,269.33,279.72,236.07,113.65,26.3,10.05,6.05
173.326,1997-06-22 07:49:26,0,0,75.1,972,2160,1575.81,2615.7,3239.35,5498.14,4364.27,2674.66,1182.21,570.04,306.9,227.55,223.64,267.88,209.29,88.08,23.57,9.6,2.9
173.333,1997-06-22 07:59:31,0,0,75.1,810,1550,712,847.9,715.89,633.56,510.28,311.09,132.4,104.56,157.89,104.24,128.14,264.97,230.75,0,37.88,8.38,2.9
173.34,1997-06-22 08:09:36,0,0,75.1,810,2130,678.24,819.53,651.22,572.43,525.08,334.32,165,128.25,93.47,32.27,42.77,166.76,235.82,108.25,23.7,4.57,3.04
173.347,1997-06-22 08:19:40,0,0,150,324,2010,588.91,799.67,714.75,606.85,578.63,554.4,694.47,5025.89,9384.78,8979.29,4340.84,744,159.38,77.87,20.82,5.26,2.42
173.354,1997-06-22 08:29:45,0,0,295,378,1930,605.75,876.56,885.21,634.37,458.84,277.54,156.89,132.51,113.13,98.93,128.92,160.44,144.8,72.99,15.13,9.4,5.32
173.361,1997-06-22 08:39:50,0,0,73.7,432,1810,741.79,989.97,956.3,614.37,457.41,275.65,122.8,75.85,71.67,98.79,118.3,130.41,114.77,65.96,16.89,8.91,5.32
173.368,1997-06-22 08:49:55,0,0,150,661,1350,722.84,1154.77,1086.54,677.17,496.79,352.54,167.1,75.68,69.58,80.37,100.34,127.62,130.27,58.39,16.94,8.45,5.56
173.375,1997-06-22 09:00:00,0,0,75.1,540,1820,812.3,1150.44,1125.98,678.94,502.84,326.63,143.21,64.46,60.74,86.95,104.83,128.84,121.1,66.76,14.88,8.23,6.02
173.382,1997-06-22 09:10:04,0,0,0,594,1900,764.63,1188.81,1220.38,730.86,470.75,316.1,157.52,83.35,65.9,100.2,109.73,110.7,108.56,61.97,19.34,9.14,3.63
173.389,1997-06-22 09:20:09,0,0,0,270,1310,775.56,1205.79,1096.43,533.88,363.91,289.77,143.78,77.78,64.31,85.29,84.46,107.93,103.27,58.33,14,7.31,7.98
173.396,1997-06-22 09:30:14,0,0,0,594,1310,612.7,991.2,964.04,520.54,375.52,249.34,120.29,70.42,81.25,85.96,96.96,108.14,106.46,54.21,13.04,7.77,4.16
173.403,1997-06-22 09:40:19,0,0,150,108,1080,565.03,945.12,835.59,468.99,415.94,337.62,179.93,99.1,74.98,82.52,125.59,146.58,107.5,49.9,21.39,9.37,4.84
173.41,1997-06-22 09:50:24,0,106,75.1,594,1820,613.69,1020.31,955.09,500.41,404.6,304.17,181.98,78.15,69.5,85.68,104.53,111.97,108.26,46.96,11.88,6.4,5.56
173.417,1997-06-22 10:00:28,0,0,0,540,2010,708.03,927.38,772.63,383.54,241.29,179.25,98.71,63.4,59.65,79.59,97.56,121.14,85.88,38.67,10.47,7.08,3.14
173.424,1997-06-22 10:10:33,0,0,225,477,1890,682.21,869.87,661.56,336.41,212.51,165.97,76.1,55.52,66.96,57.18,100.54,117.73,88.06,35.09,8.28,5.03,2.42
173.431,1997-06-22 10:20:38,0,0,0,424,1240,591.76,779.61,587.9,281.43,189.79,128.04,64.52,48.35,39.61,42.12,89.99,89.74,65.59,32.13,4.88,5.03,3.87
173.438,1997-06-22 10:30:43,0,0,0,110,1360,557.61,713.69,540.17,258.3,189.29,120.73,63.69,45.15,38.75,38.35,64.1,73.57,61.76,40.18,10.52,4.11,3.01
173.444,1997-06-22 10:39:21,0,0,0,162,1620,569.01,871.43,694.27,339.45,208.96,181.04,94.78,62.2,59.91,65.46,67.5,94.98,92.84,49.34,16.97,6.4,2.9
173.451,1997-06-22 10:49:26,0,0,0,486,1350,712.39,984.21,944.64,503.52,212.16,200.1,115.29,59.14,67.72,92.33,85.49,86.7,104.3,53.88,11.59,5.26,4.35
173.458,1997-06-22 10:59:31,0,0,0,486,967,711.01,1012.87,1016.57,626.27,246.05,188.71,109.16,73.49,81.91,86.16,77.62,85.4,91.92,44.26,15.81,4.11,4.63
173.465,1997-06-22 11:09:36,147,431,221,486,1590,602.77,866.07,778.44,433.73,181.35,165,80.57,52.71,64.91,92.27,91.74,92.87,91.8,45.27,12.41,9.1,8.71
173.472,1997-06-22 11:19:40,0,0,0,486,1510,593.66,845.13,830.63,438.09,0,166.99,85.49,44.94,56.53,74.59,79.32,85.38,82.57,44.43,12.21,4.34,2.79
173.479,1997-06-22 11:29:45,0,0,0,53,928,568.01,870.15,940.08,625.29,250.29,177.3,115.09,64.22,45.99,65.89,84.49,93.77,85.64,42.28,9.88,7.54,3.63
173.486,1997-06-22 11:39:50,0,106,0,108,1070,510.42,739.49,657.75,378.3,185.08,166.75,84.57,47.76,46.74,74.87,96.48,105.87,96.33,43.18,12.18,3.66,2.18
173.493,1997-06-22 11:49:55,0,0,0,270,1040,506.45,729.19,682.34,421.06,218.82,173.99,93.03,45.84,42.36,65.3,90.28,108.66,92.52,39.56,7.75,4.8,4.84
173.5,1997-06-22 12:00:00,0,0,0,0,0,516,755.63,719.17,494.35,280.48,208.36,121.69,69.91,68.91,105.24,114.16,116.72,115.99,46.42,12.91,3.88,3.39
173.507,1997-06-22 12:10:04,147,0,376,486,77.3,225.42,629.78,898.14,899.38,601.17,482.6,558.23,606.85,456.47,217.47,161.67,136.95,119.71,44.88,9.71,6.63,2.9
173.514,1997-06-22 12:20:09,0,103,76.7,324,1100,519.57,663.94,602.74,350.83,161.97,141.59,56.01,45.86,49.95,73.02,121.52,142.47,97.28,43.02,6.81,5.03,4.6
173.521,1997-06-22 12:30:14,0,108,0,270,619,432.96,634,616.44,394.96,207.64,148.97,72.28,35.71,51.13,54.85,107.08,129.98,107.17,39.36,8.24,5.03,4.11
173.528,1997-06-22 12:40:19,0,0,0,432,1280,375.37,598.35,640.9,406.68,198.45,162.55,73.61,30.89,41.3,56.93,106.1,140.18,85.65,0,8.23,3.35,3.14
173.535,1997-06-22 12:50:24,0,0,0,53,464,338.62,569,618.61,445.96,228.47,152.4,66.39,30.83,20.3,58.97,102.61,118.84,86.83,28.43,3.92,3.66,2.03
173.542,1997-06-22 13:00:28,0,0,0,0,580,418.07,675.97,763.14,506.19,236.86,144.52,67.92,34.33,39.09,46.92,97.47,130.94,98.56,39.56,9.95,6.63,4.84
173.549,1997-06-22 13:10:33,0,0,0,0,851,400.19,682.66,738.38,523.84,263.53,165.59,62.48,35.57,43.7,71.14,88.41,121.53,96.14,37.49,7.14,5.94,4.11
173.556,1997-06-22 13:20:38,0,0,0,54,552,454.81,643.96,743.5,548.51,268.09,200.17,81.96,35.16,39.45,58.96,91.41,116.3,97.88,39.57,8.22,5.26,2.18
173.562,1997-06-22 13:29:16,0,0,0,0,619,362.46,661.96,763.8,586.03,294.72,188.13,87.05,38.08,43.71,80.79,104.71,117.12,99.26,38.23,8.55,5.03,2.66
173.569,1997-06-22 13:39:21,0,0,0,54,425,322.74,599.02,789.23,612.21,332.79,208.77,94.56,42.21,59.98,76.12,99.23,106.93,94.05,38.51,11.85,5.26,2.66
173.576,1997-06-22 13:49:26,0,0,75.1,0,309,286.99,547.6,854.44,789.79,467.5,266.57,138.83,58.9,39.78,57.15,81.43,105.78,91,31.8,6.01,5.94,4.84
173.583,1997-06-22 13:59:31,0,323,442,1080,2440,237.33,643.09,935.29,1156.92,836.79,1246.91,1754.85,1521.74,834.02,543.13,351.95,280.52,146.79,57.31,16.37,3.2,3.14
173.59,1997-06-22 14:09:36,0,0,75.1,53,309,676.25,1017.76,1283.95,1239.17,774.02,435.69,285.18,127.63,93.19,107.34,107.22,123.5,100.69,41.12,8.96,4.55,5.32
173.597,1997-06-22 14:19:40,0,0,75.1,54,155,177.75,558.1,871.38,813.8,390.41,228.36,140.5,82.58,54.54,62.06,97.57,141.44,106.46,37.93,6.79,3.88,3.04
173.604,1997-06-22 14:29:45,0,0,0,0,190,211.52,559.63,838.46,744.33,431.19,267.36,219.57,158.42,95.58,90.08,118.04,144.3,111.92,43.36,12.41,3.43,3.14
173.611,1997-06-22 14:39:50,0,0,75.1,0,77.3,121.15,534.23,951.12,797.65,418.96,264.63,138.87,120.1,101.77,87.97,104.15,132.88,115.41,40.18,11.21,3.43,4.6
173.618,1997-06-22 14:49:55,0,0,0,54,0,63.55,381.89,854.59,914.45,509.99,291.34,191.32,110.31,77.04,65.91,96.45,113.69,115.02,47.19,9.77,3.88,3.63
173.625,1997-06-22 15:00:00,0,0,0,55.1,38.7,48.66,324.34,834.87,1005.73,529.76,330.94,239.24,134.31,82.65,76.59,91.54,118.98,124.18,49.79,9.12,4.57,4.11
173.632,1997-06-22 15:10:04,0,0,0,54,0,51.64,317.08,768.44,971.29,540.08,353.32,195.69,104.4,77.81,68.73,99.22,146.65,119.67,48.31,9.28,3.66,3.87
173.639,1997-06-22 15:20:09,0,0,0,0,116,104.27,332.3,692.27,877.55,722.98,562.75,362.23,171.05,106.77,100.51,121.84,126.67,104.19,43.7,12.36,4.8,3.87
173.646,1997-06-22 15:30:14,0,0,75.1,265,271,45.68,294.98,770.5,929.75,559.48,419.7,218.06,89.96,64.61,73.03,97.19,126.68,118.89,52.92,13.95,3.66,3.14
173.653,1997-06-22 15:40:19,0,0,0,216,271,66.53,320.15,857.22,1596.14,1276.32,651.84,310.24,119.38,75.79,82.16,122.76,185.28,151.09,52.95,11.98,5.03,4.11
173.66,1997-06-22 15:50:24,0,0,75.1,54,227,84.41,319.74,634.08,697.36,514.5,420.95,212.3,89.21,69.75,75.41,99.51,154.43,141.68,59.13,9.3,5.48,2.53
173.667,1997-06-22 16:00:28,0,0,0,54,271,125.12,409.86,634.87,602.52,523.21,403.37,187.17,64.88,52.92,78.48,113.86,152.58,144.49,57.95,13.8,6.86,4.35
173.674,1997-06-22 16:10:33,0,0,0,54,193,125.12,379.11,621.57,668.83,559.27,458.32,214.92,75.39,63.75,69.92,121.63,171.72,141.76,62.79,14.35,5.71,4.84
173.681,1997-06-22 16:20:38,0,0,75.1,54,197,94.34,347.93,627.79,667.71,511.81,463.91,223.08,0,61.22,71.37,111.58,163.43,170.83,75.95,19.33,8.23,4.63
173.688,1997-06-22 16:30:43,0,0,0,110,1010,264.15,395.64,720.65,788.62,667.34,598.11,464.11,433.99,339.1,213.88,240.82,286.89,259.72,122.8,27,8,4.35